FW4315 Weather Reports


time (UTC)temp
F
wind
direction
speed
knots
gust
knots
rain 1hr
in
rain 24hr
in
rain mn
in
humidity
%
barometer
mb
20260507002703 44 245 1.7 3.5 0.00 0.01 0.00 88
20260507001804 44 147 1.7 3.5 0.00 0.01 0.00 87
20260507000904 44 213 1.7 4.3 0.00 0.01 0.00 88
20260507000017 44 266 0.9 3.5 0.00 0.01 0.00 88
20260506235404 44 261 0.9 4.3 0.00 0.01 0.01 89
20260506234504 43 281 2.6 5.2 0.00 0.01 0.01 88
20260506233604 43 0 0.0 0.0 0.00 0.01 0.01 87
20260506232704 44 110 0.0 0.9 0.00 0.01 0.01 87
20260506231804 44 121 0.0 0.9 0.00 0.01 0.01 86
20260506230904 44 0 0.0 0.0 0.00 0.01 0.01 86
20260506230004 44 0 0.0 0.0 0.00 0.01 0.01 85
20260506225404 45 0 0.0 0.0 0.00 0.01 0.01 84
20260506224504 45 0 0.0 0.0 0.00 0.01 0.01 84
20260506223603 46 113 0.9 2.6 0.00 0.01 0.01 83
20260506222704 46 77 0.0 1.7 0.00 0.01 0.01 82
20260506221804 47 294 0.0 1.7 0.00 0.01 0.01 81
20260506220903 47 219 0.0 1.7 0.00 0.01 0.01 80
20260506220005 48 176 0.9 3.5 0.00 0.01 0.01 79
20260506215404 48 170 0.9 4.3 0.00 0.01 0.01 79
20260506214503 48 185 1.7 4.3 0.00 0.01 0.01 80
20260506213604 47 157 3.5 8.7 0.00 0.01 0.01 82
20260506212703 47 125 0.0 0.9 0.00 0.01 0.01 83
20260506211804 47 76 0.0 2.6 0.00 0.01 0.01 83
20260506210904 47 80 0.0 2.6 0.00 0.01 0.01 82
20260506210004 48 231 0.9 1.7 0.00 0.01 0.01 82
20260506205404 48 224 0.0 1.7 0.00 0.01 0.01 81
20260506204504 48 0 0.0 0.0 0.00 0.01 0.01 81
20260506203604 49 247 0.0 0.9 0.00 0.01 0.01 79
20260506202703 50 247 0.0 0.9 0.00 0.01 0.01 79
20260506201824 51 53 0.0 1.7 0.00 0.01 0.01 77
20260506200904 52 51 0.0 2.6 0.00 0.01 0.01 76
20260506200025 52 53 0.0 2.6 0.00 0.01 0.01 75
20260506195424 52 233 0.0 1.7 0.00 0.01 0.01 74
20260506194503 53 248 1.7 2.6 0.00 0.01 0.01 74
20260506193604 55 257 0.0 0.9 0.00 0.01 0.01 72
20260506192703 56 138 0.9 1.7 0.00 0.01 0.01 67
20260506191803 57 131 0.9 2.6 0.00 0.01 0.01 63
20260506190903 58 0 0.0 0.0 0.00 0.01 0.01 63
20260506190004 59 12 0.0 1.7 0.00 0.01 0.01 59
20260506185404 59 7 0.0 1.7 0.00 0.01 0.01 60
20260506184504 60 340 0.9 2.6 0.00 0.01 0.01 55
20260506183624 60 1 0.9 2.6 0.00 0.01 0.01 53
20260506182704 61 28 0.9 2.6 0.00 0.01 0.01 51
20260506181824 61 77 0.9 2.6 0.00 0.01 0.01 50
20260506180903 62 99 0.9 3.5 0.00 0.01 0.01 46
20260506180005 63 64 0.9 3.5 0.00 0.01 0.01 46
20260506175404 63 80 1.7 5.2 0.00 0.01 0.01 46
20260506174504 63 69 1.7 3.5 0.00 0.01 0.01 48
20260506173625 62 53 1.7 4.3 0.00 0.01 0.01 50
20260506172704 62 80 0.9 3.5 0.00 0.01 0.01 51
20260506171804 61 122 1.7 3.5 0.00 0.01 0.01 49
20260506170904 61 113 2.6 5.2 0.00 0.01 0.01 49
20260506170004 62 124 3.5 6.1 0.00 0.01 0.01 48
20260506165405 62 102 1.7 5.2 0.00 0.01 0.01 49
20260506164504 62 85 1.7 4.3 0.00 0.01 0.01 48
20260506163604 62 98 3.5 6.1 0.00 0.01 0.01 50
20260506162704 62 64 2.6 5.2 0.00 0.01 0.01 47
20260506161826 62 66 2.6 6.1 0.00 0.01 0.01 50
20260506160904 62 83 1.7 5.2 0.00 0.01 0.01 48
20260506160025 62 78 2.6 6.1 0.00 0.01 0.01 52
20260506155405 62 139 3.5 7.8 0.00 0.01 0.01 52
20260506154504 61 172 4.3 8.7 0.00 0.01 0.01 56
20260506153625 60 169 4.3 9.6 0.00 0.01 0.01 58
20260506152704 60 117 2.6 6.1 0.00 0.01 0.01 51
20260506151804 60 243 1.7 4.3 0.00 0.01 0.01 50
20260506150904 60 242 3.5 6.1 0.00 0.01 0.01 49
20260506150004 60 292 2.6 8.7 0.00 0.01 0.01 50
20260506145425 61 337 3.5 8.7 0.00 0.01 0.01 48
20260506144504 62 349 4.3 8.7 0.00 0.01 0.01 49
20260506143625 62 351 5.2 9.6 0.00 0.01 0.01 51
20260506142704 63 46 2.6 6.1 0.00 0.01 0.01 47
20260506141804 63 58 3.5 7.0 0.00 0.01 0.01 48
20260506140925 62 34 3.5 10.4 0.00 0.01 0.01 51
20260506140005 61 15 3.5 10.4 0.00 0.01 0.01 55
20260506135404 60 359 1.7 5.2 0.00 0.01 0.01 53
20260506134504 61 90 2.6 7.0 0.00 0.01 0.01 52
20260506133604 60 154 3.5 7.0 0.00 0.01 0.01 54
20260506132725 60 129 1.7 5.2 0.00 0.01 0.01 53
20260506131804 61 12 1.7 4.3 0.00 0.01 0.01 54
20260506130904 60 162 2.6 7.0 0.00 0.01 0.01 54
20260506130026 60 178 2.6 6.1 0.00 0.01 0.01 57
20260506125405 58 233 2.6 6.1 0.00 0.01 0.01 56
20260506124504 58 271 3.5 7.0 0.00 0.01 0.01 57
20260506123604 58 313 1.7 4.3 0.00 0.01 0.01 58
20260506122704 58 151 1.7 6.1 0.00 0.01 0.01 57
20260506121804 58 121 1.7 4.3 0.00 0.01 0.01 57
20260506120904 58 115 3.5 6.1 0.00 0.01 0.01 57
20260506120005 58 39 2.6 6.1 0.00 0.01 0.01 62
20260506115404 57 31 2.6 6.1 0.00 0.01 0.01 62
20260506114504 57 71 2.6 7.0 0.00 0.01 0.01 62
20260506113604 57 56 2.6 7.0 0.00 0.01 0.01 64
20260506112725 56 296 2.6 6.1 0.00 0.01 0.01 65
20260506111805 56 326 0.9 4.3 0.00 0.01 0.01 66
20260506110904 56 86 1.7 7.0 0.00 0.01 0.01 67
20260506110025 56 84 2.6 7.0 0.00 0.01 0.01 66
20260506105404 57 71 2.6 6.1 0.00 0.01 0.01 66
20260506104504 57 160 3.5 8.7 0.00 0.01 0.01 69
20260506103604 57 133 3.5 8.7 0.00 0.01 0.01 65
20260506102704 56 77 2.6 8.7 0.00 0.01 0.01 73
20260506101804 55 122 3.5 11.3 0.00 0.01 0.01 73
20260506100904 54 127 5.2 11.3 0.00 0.01 0.01 74
20260506100005 54 135 4.3 8.7 0.00 0.01 0.01 76
20260506095425 54 137 2.6 8.7 0.00 0.01 0.01 77
20260506094504 53 93 2.6 7.0 0.00 0.01 0.01 78
20260506093604 52 78 4.3 9.6 0.00 0.01 0.01 80
20260506092704 52 113 3.5 8.7 0.00 0.01 0.01 84
20260506091804 50 133 2.6 7.0 0.00 0.01 0.01 84
20260506090903 49 145 2.6 7.0 0.00 0.01 0.01 87
20260506090004 48 163 1.7 6.1 0.00 0.01 0.01 89
20260506085404 48 149 1.7 6.1 0.00 0.01 0.01 91
20260506084504 47 120 2.6 6.1 0.00 0.01 0.01 91
20260506083604 46 98 3.5 7.8 0.00 0.01 0.01 92
20260506082703 46 98 2.6 7.0 0.00 0.01 0.01 94
20260506081825 45 116 2.6 6.1 0.00 0.01 0.01 95
20260506080904 44 134 2.6 5.2 0.00 0.01 0.01 96
20260506072704 43 126 4.3 8.7 0.00 0.01 0.01 97
20260506071804 42 127 4.3 8.7 0.00 0.01 0.01 96
20260506070904 42 120 3.5 6.1 0.00 0.01 0.01 97
20260506061804 42 142 0.0 1.7 0.00 0.01 0.01 97
20260506060924 42 130 0.0 1.7 0.00 0.01 0.01 96
20260506050924 41 79 1.7 3.5 0.00 0.01 0.01 97
20260506044504 40 157 2.6 5.2 0.00 0.01 0.01 96
20260506043624 39 140 1.7 3.5 0.00 0.01 0.01 97
20260506042704 38 95 0.9 2.6 0.00 0.01 0.01 95
20260506041825 38 94 0.0 1.7 0.00 0.01 0.01 95
20260506040904 38 52 0.0 2.6 0.00 0.01 0.01 95
20260506040004 38 74 0.9 3.5 0.01 0.01 0.01 94
20260506035403 38 250 0.0 1.7 0.01 0.01 0.01 94
20260506034504 38 0 0.0 0.0 0.01 0.01 0.01 94
20260506033604 39 69 0.0 2.6 0.01 0.01 0.01 94
20260506032724 40 69 0.0 2.6 0.01 0.01 0.01 95
20260506031803 40 215 0.9 2.6 0.01 0.01 0.01 95
20260506030924 40 241 0.0 1.7 0.01 0.01 0.01 95
20260506030004 40 276 0.0 1.7 0.00 0.00 0.00 94
20260506025404 40 274 0.9 3.5 0.00 0.00 0.00 95
20260506024503 41 256 1.7 3.5 0.00 0.00 0.00 94
20260506023603 41 230 1.7 3.5 0.00 0.00 0.00 95
20260506022703 41 228 1.7 3.5 0.00 0.00 0.00 95
20260506021803 41 244 1.7 3.5 0.00 0.00 0.00 95
20260506020903 41 285 2.6 5.2 0.00 0.00 0.00 94
20260506020004 41 275 3.5 5.2 0.00 0.00 0.00 94
20260506015403 41 275 2.6 5.2 0.00 0.00 0.00 94
20260506014504 41 255 1.7 4.3 0.00 0.00 0.00 94
20260506013604 42 231 1.7 4.3 0.00 0.00 0.00 94
20260506012704 42 216 0.9 3.5 0.00 0.00 0.00 94
20260506011803 42 242 1.7 3.5 0.00 0.00 0.00 94
20260506010903 42 257 1.7 3.5 0.00 0.00 0.00 94
20260506010004 42 251 2.6 4.3 0.00 0.00 0.00 93
20260506005404 42 251 1.7 3.5 0.00 0.00 0.00 93
20260506004504 43 289 1.7 4.3 0.00 0.00 0.00 94
20260506003604 43 289 2.6 4.3 0.00 0.00 0.00 94